Location: Beneden-Haastrecht
(52.0012°N, 4.7557°E)
Time: 03:19:31
(UTC+00:00)

USA 281 - Pass Details

Date: 24 October 2020
Orbit: 1079 x 1080 km, 106.0° (Epoch: 23 November)

Event Time Altitude Azimuth Distance (km) Brightness Sun altitude
Rises 17:25:15 0° 172° (S) 3,864 6.1 -9.5°
Reaches altitude 10° 17:27:53 10° 179° (S) 2,912 5.6 -9.9°
Maximum altitude 17:34:08 46° 251° (WSW) 1,415 4.4 -10.9°
Drops below altitude 10° 17:40:26 10° 324° (NW) 2,929 5.9 -11.8°
Sets 17:43:05 0° 331° (NNW) 3,890 6.5 -12.3°
